Location: Morosaglia
(42.4360°N, 9.3069°E)
Time: 20:16:49
(UTC+00:00)

NOSS 2-1 (C) - Pass Details

Date: 07 June 2020
Orbit: 448 x 1755 km, 63.3° (Epoch: 29 June)

Event Time Altitude Azimuth Distance (km) Brightness Sun altitude
Exits shadow 01:12:31 78° 239° (WSW) 463 2.7 -19.9°
Maximum altitude 01:12:42 85° 306° (NW) 455 2.8 -19.9°
Drops below altitude 10° 01:16:11 10° 35° (NE) 1,634 6.9 -19.6°
Sets 01:18:24 0° 36° (NE) 2,595 8.4 -19.4°
